sat.trackr.live / text

‹ back to catalog

STARLINK-36362

NORAD 67424 · 2026-005W

PAYLOAD ACTIVE UNKNOWN

§ Identity

Operator
Country
US
Launch date
2026-01-12
Launch site
AFETR
Launch vehicle
Mass (kg)
RCS (m²)

Purposes: comms

External: N2YO · Heavens-Above · Gunter

§ Orbital elements

Epoch: 2026-09-19T22:28:46.124544Z

Period
94.27 min
Inclination
42.9992°
Eccentricity
0.0000567
Mean motion
15.27592424 rev/d
Perigee alt
482.6 km
Apogee alt
483.4 km
Semi-major
6,861.1 km
B*
4.8766e-4
RAAN
221.0148°
Arg perigee
291.5348°
Mean anomaly
68.5443°
Rev number
3,840

§ Raw data

STARLINK-363621 67424U 26005W   26262.93664496  .00013187  00000+0  48766-3 0  99942 67424  42.9992 221.0148 0000567 291.5348  68.5443 15.27592424 38404

JSON: /api/v1/satellites/67424 · /tle

For live sub-satellite position, see the globe view (requires WebGL).

§ Visibility from observer

Set your observer location to see the next 7 days of passes ≥ 10°. The values pass through the URL so the page stays shareable.

No JS? Fill the form by hand. The geolocation button needs JavaScript.